Russell, KS

10:28 AM CST on December 07, 2016 (GMT -0600)
Russell Municipal

Weather History for KRSL - June, 2013

Change the Weather History Date:

Friday, June 21, 2013

  Actual Average Record
Temperature  
Mean Temperature 85 °F -  
Max Temperature 97 °F 88 °F 107 °F (1988)
Min Temperature 73 °F 63 °F 49 °F (1972)
Cooling Degree Days 20    
Growing Degree Days 35 (Base 50)    
Moisture  
Dew Point 65 °F    
Average Humidity 53    
Maximum Humidity 82    
Minimum Humidity 31    
Precipitation  
Precipitation 0.01 in - - ()
Sea Level Pressure  
Sea Level Pressure 29.77 in    
Wind  
Wind Speed 19 mph (South)    
Max Wind Speed 31 mph    
Max Gust Speed 41 mph    
Visibility 10 miles    
Events Rain , Thunderstorm    
Averages and records for this station are not official NWS values.
T = Trace of Precipitation, MM = Missing Value Source: NWS Daily Summary

Daily Weather History Graph

Daily Weather History Graph

Search for Another Location

Airport or City:

Trip Planner

Search our weather history database for the weather conditions in past years. The results will help you decide how hot, cold, wet, or windy it might be!

Date:

Astronomy

Jun. 21, 2013 Rise Set
Actual Time 6:10 AM CDT 9:04 PM CDT
Civil Twilight 5:38 AM CDT 9:36 PM CDT
Nautical Twilight 4:57 AM CDT 10:16 PM CDT
Astronomical Twilight 4:11 AM CDT 11:02 PM CDT
Moon 7:16 PM CDT (6/21) 4:26 AM CDT (6/21)
Length of Visible Light 15h 57m
Length of Day
14h 53m
Waxing Gibbous, 95% of the Moon is Illuminated
Jun 21
Waxing Gibbous
Jun 23
Full
Jun 29
Last Quarter
Jul 8
New
Jul 15
First Quarter

Hourly Weather History & Observations

Time (CDT) Temp. Heat Index Dew Point Humidity Pressure Visibility Wind Dir Wind Speed Gust Speed Precip Events Conditions
12:53 AM 81.0 °F 83.3 °F 66.9 °F 62% 29.77 in 10.0 mi South 19.6 mph 25.3 mph N/A   Clear
1:53 AM 79.0 °F - 66.9 °F 66% 29.77 in 10.0 mi South 16.1 mph - N/A   Clear
2:53 AM 77.0 °F - 66.0 °F 69% 29.75 in 10.0 mi SSE 15.0 mph - N/A   Clear
3:53 AM 78.1 °F - 66.0 °F 66% 29.77 in 10.0 mi South 17.3 mph 23.0 mph N/A   Clear
4:11 AM 78.8 °F - 66.2 °F 65% 29.84 in 10.0 mi SSW 16.1 mph 25.3 mph 0.00 in Rain , Thunderstorm Light Rain
4:53 AM 75.0 °F - 66.9 °F 76% 29.78 in 10.0 mi South 10.4 mph - 0.01 in Thunderstorm Mostly Cloudy
5:00 AM 75.2 °F - 66.2 °F 73% 29.85 in 10.0 mi South 11.5 mph - N/A   Mostly Cloudy
5:53 AM 73.9 °F - 68.0 °F 82% 29.81 in 10.0 mi SSE 9.2 mph - 0.00 in   Clear
6:53 AM 73.0 °F - 66.9 °F 81% 29.80 in 10.0 mi South 11.5 mph - N/A   Partly Cloudy
7:53 AM 75.9 °F - 66.9 °F 74% 29.78 in 10.0 mi South 17.3 mph - N/A   Clear
8:53 AM 79.0 °F - 66.9 °F 66% 29.78 in 10.0 mi South 20.7 mph - N/A   Clear
9:53 AM 84.9 °F 86.1 °F 64.0 °F 49% 29.79 in 10.0 mi South 23.0 mph 27.6 mph N/A   Clear
10:53 AM 89.1 °F 89.3 °F 62.1 °F 40% 29.79 in 10.0 mi South 19.6 mph 26.5 mph N/A   Clear
11:53 AM 93.9 °F 94.8 °F 62.1 °F 35% 29.77 in 10.0 mi South 23.0 mph 34.5 mph N/A   Clear
12:53 PM 96.1 °F 96.9 °F 62.1 °F 32% 29.77 in 10.0 mi South 28.8 mph 39.1 mph N/A   Clear
1:53 PM 96.1 °F 96.9 °F 62.1 °F 32% 29.76 in 10.0 mi South 27.6 mph 35.7 mph N/A   Clear
2:53 PM 96.1 °F 98.3 °F 64.0 °F 35% 29.74 in 10.0 mi South 31.1 mph 36.8 mph N/A   Clear
3:53 PM 96.1 °F 98.8 °F 64.9 °F 36% 29.75 in 10.0 mi South 29.9 mph 36.8 mph N/A   Clear
4:53 PM 97.0 °F 97.8 °F 62.1 °F 31% 29.72 in 10.0 mi South 26.5 mph 38.0 mph N/A   Clear
5:53 PM 97.0 °F 97.8 °F 62.1 °F 31% 29.71 in 10.0 mi South 28.8 mph 39.1 mph N/A   Clear
6:53 PM 93.0 °F 94.2 °F 63.0 °F 37% 29.72 in 10.0 mi South 28.8 mph 41.4 mph N/A   Clear
7:53 PM 91.9 °F 91.8 °F 61.0 °F 35% 29.73 in 10.0 mi South 28.8 mph 38.0 mph N/A   Clear
8:53 PM 88.0 °F 88.7 °F 63.0 °F 43% 29.74 in 10.0 mi South 20.7 mph 27.6 mph N/A   Clear
9:53 PM 84.0 °F 85.4 °F 64.0 °F 51% 29.75 in 10.0 mi South 16.1 mph 23.0 mph N/A   Clear
10:53 PM 82.9 °F 85.4 °F 66.9 °F 58% 29.76 in 10.0 mi SSE 19.6 mph 26.5 mph N/A   Clear
11:53 PM 82.0 °F 84.9 °F 68.0 °F 62% 29.76 in 10.0 mi SSE 26.5 mph 33.4 mph N/A   Clear